Location: Unspecified
(0.0000°N, 0.0000°E)
Time: 22:49:22
(UTC+00:00)

OTV 5 (USA 277) - Pass Details

Date: 19 April 2018
Orbit: 308 x 325 km, 54.5° (Epoch: 23 April)

Event Time Altitude Azimuth Distance (km) Brightness Sun altitude
Rises 05:15:42 0° 325° (NW) 2,005 ? -10.7°
Reaches altitude 10° 05:17:39 10° 323° (NW) 1,183 ? -10.2°
Maximum altitude 05:20:15 75° 237° (WSW) 321 ? -9.6°
Drops below altitude 10° 05:22:53 10° 152° (SSE) 1,192 ? -8.9°
Sets 05:24:51 0° 150° (SSE) 2,023 ? -8.4°
